Вернуться в каталог

DELTA 1 DEB

АктивенSSO
NORAD 7132·DEBRIS·🇺🇸 United States

Запущен Nov 6, 1973 с Vandenberg Space Force Base

Loading…

Ближайшие Пролёты (ближайшие 24 часа)

TLE

СвежийSource: Space-Track

Эпоха: Sep 14, 2026, 10:54 UTC

1 07132U 73086CW  26257.45471205  .00000049  00000-0  70185-3 0  9994
2 07132 102.2299 240.0826 0020106 188.8266 323.3302 12.41409013390766

Отслеживайте DELTA 1 DEB в реальном времени с AllMySat

Download on the App Store